When you browse on this site, cookies collect data to enhance your experience and personalize the content and advertising you see.
Visit our Privacy Policy to learn more. By continuing to use the site, you agree to this use of cookies and data.
  • en France
  • Liste des pays
  • À 7 jours
  • Température de l'eau
  • Carte satellitaire
  • Carte météo
  • Widgets météo
  • user-avatar
    Se connecter

    Météo par heure à Ablon-sur-Seine

    Ce jour, 17 Février, Dimanche

    Heure Température Précipitation Vent Pression Humidité
    00:00 +9°C° 0 mm 1 m/s 760 mmHg 72%
    01:00 +7°C° 0 mm 2 m/s 760 mmHg 72%
    02:00 +7°C° 0 mm 2 m/s 760 mmHg 71%
    03:00 +7°C° 0 mm 2 m/s 759 mmHg 71%
    04:00 +7°C° 0 mm 2 m/s 759 mmHg 71%
    05:00 +6°C° 0 mm 2 m/s 759 mmHg 72%
    06:00 +6°C° 0 mm 2 m/s 758 mmHg 72%
    07:00 +7°C° 0 mm 3 m/s 758 mmHg 66%
    08:00 +7°C° 0 mm 3 m/s 758 mmHg 61%
    09:00 +7°C° 0 mm 4 m/s 758 mmHg 55%
    10:00 +10°C° 0 mm 4 m/s 758 mmHg 50%
    11:00 +11°C° 0 mm 4 m/s 758 mmHg 45%
    12:00 +13°C° 0 mm 4 m/s 758 mmHg 40%
    13:00 +13°C° 0 mm 4 m/s 758 mmHg 40%
    14:00 +14°C° 0 mm 4 m/s 758 mmHg 41%
    15:00 +14°C° 0 mm 4 m/s 757 mmHg 41%
    16:00 +13°C° 0 mm 3 m/s 757 mmHg 47%
    17:00 +12°C° 0 mm 3 m/s 758 mmHg 52%
    18:00 +10°C° 0 mm 2 m/s 758 mmHg 58%
    19:00 +10°C° 0 mm 2 m/s 758 mmHg 60%
    20:00 +9°C° 0 mm 2 m/s 758 mmHg 63%
    21:00 +9°C° 0 mm 2 m/s 758 mmHg 65%
    22:00 +8°C° 0 mm 2 m/s 758 mmHg 67%
    23:00 +8°C° 0 mm 2 m/s 758 mmHg 69%

    Demain, 18 Février, Lundi

    Heure Température Précipitation Vent Pression Humidité
    00:00 +8°C° 0 mm 2 m/s 758 mmHg 71%
    01:00 +7°C° 0 mm 2 m/s 758 mmHg 72%
    02:00 +7°C° 0 mm 2 m/s 758 mmHg 74%
    03:00 +7°C° 0 mm 2 m/s 757 mmHg 75%
    04:00 +6°C° 0 mm 2 m/s 757 mmHg 77%
    05:00 +6°C° 0 mm 2 m/s 757 mmHg 79%
    06:00 +6°C° 0 mm 2 m/s 757 mmHg 80%
    07:00 +6°C° 0 mm 2 m/s 757 mmHg 76%
    08:00 +7°C° 0 mm 2 m/s 757 mmHg 72%
    09:00 +8°C° 0 mm 3 m/s 758 mmHg 68%
    10:00 +9°C° 0 mm 3 m/s 757 mmHg 64%
    11:00 +10°C° 0 mm 3 m/s 757 mmHg 59%
    12:00 +11°C° 0 mm 3 m/s 757 mmHg 54%
    13:00 +12°C° 0 mm 3 m/s 757 mmHg 54%
    14:00 +13°C° 0 mm 3 m/s 756 mmHg 54%
    15:00 +13°C° 0 mm 3 m/s 756 mmHg 54%
    16:00 +12°C° 0 mm 3 m/s 756 mmHg 59%
    17:00 +12°C° 0 mm 2 m/s 756 mmHg 65%
    18:00 +11°C° 0 mm 1 m/s 757 mmHg 71%
    19:00 +10°C° 0 mm 2 m/s 757 mmHg 74%
    20:00 +9°C° 0 mm 2 m/s 757 mmHg 77%
    21:00 +9°C° 0 mm 2 m/s 757 mmHg 79%
    22:00 +9°C° 0 mm 2 m/s 757 mmHg 82%
    23:00 +8°C° 0 mm 2 m/s 758 mmHg 84%

    Après-demain, 19 Février, Mardi

    Heure Température Précipitation Vent Pression Humidité
    00:00 +8°C° 0 mm 2 m/s 758 mmHg 86%
    01:00 +8°C° 0.1 mm 2 m/s 758 mmHg 88%
    02:00 +9°C° 0.1 mm 1 m/s 758 mmHg 90%
    03:00 +9°C° 0.1 mm 1 m/s 758 mmHg 92%
    04:00 +8°C° 0 mm 1 m/s 758 mmHg 92%
    05:00 +8°C° 0 mm 1 m/s 758 mmHg 93%
    06:00 +8°C° 0 mm 1 m/s 759 mmHg 93%
    07:00 +8°C° 0 mm 1 m/s 759 mmHg 90%
    08:00 +9°C° 0 mm 1 m/s 759 mmHg 86%
    09:00 +9°C° 0 mm 1 m/s 760 mmHg 82%
    10:00 +10°C° 0 mm 1 m/s 760 mmHg 75%
    11:00 +11°C° 0 mm 1 m/s 760 mmHg 69%
    12:00 +12°C° 0 mm 1 m/s 760 mmHg 62%
    13:00 +12°C° 0 mm 1 m/s 760 mmHg 60%
    14:00 +13°C° 0 mm 1 m/s 760 mmHg 57%
    15:00 +13°C° 0 mm 2 m/s 760 mmHg 54%
    16:00 +12°C° 0 mm 1 m/s 760 mmHg 56%
    17:00 +12°C° 0 mm 1 m/s 760 mmHg 57%
    18:00 +11°C° 0 mm 1 m/s 760 mmHg 59%
    19:00 +11°C° 0 mm 1 m/s 760 mmHg 61%
    20:00 +10°C° 0 mm 1 m/s 760 mmHg 62%
    21:00 +10°C° 0 mm 1 m/s 760 mmHg 64%
    22:00 +9°C° 0 mm 1 m/s 760 mmHg 68%
    23:00 +8°C° 0 mm 1 m/s 760 mmHg 72%

    20 Février, Mercredi

    Heure Température Précipitation Vent Pression Humidité
    00:00 +8°C° 0 mm 1 m/s 760 mmHg 76%
    01:00 +8°C° 0 mm 1 m/s 760 mmHg 79%
    02:00 +7°C° 0 mm 1 m/s 760 mmHg 82%
    03:00 +7°C° 0 mm 1 m/s 760 mmHg 85%
    04:00 +7°C° 0 mm 1 m/s 760 mmHg 86%
    05:00 +6°C° 0 mm 1 m/s 760 mmHg 88%
    06:00 +6°C° 0 mm 1 m/s 760 mmHg 89%
    07:00 +7°C° 0 mm 1 m/s 760 mmHg 86%
    08:00 +6°C° 0 mm 2 m/s 761 mmHg 83%
    09:00 +7°C° 0 mm 2 m/s 761 mmHg 80%
    10:00 +9°C° 0 mm 2 m/s 761 mmHg 74%
    11:00 +10°C° 0 mm 2 m/s 761 mmHg 68%
    12:00 +13°C° 0 mm 2 m/s 761 mmHg 62%
    13:00 +13°C° 0 mm 2 m/s 761 mmHg 61%
    14:00 +14°C° 0 mm 2 m/s 761 mmHg 60%
    15:00 +14°C° 0 mm 2 m/s 761 mmHg 59%
    16:00 +14°C° 0 mm 2 m/s 761 mmHg 64%
    17:00 +13°C° 0 mm 1 m/s 761 mmHg 68%
    18:00 +12°C° 0 mm 1 m/s 761 mmHg 73%
    19:00 +11°C° 0 mm 1 m/s 762 mmHg 76%
    20:00 +11°C° 0 mm 1 m/s 762 mmHg 78%
    21:00 +10°C° 0 mm 1 m/s 762 mmHg 80%
    22:00 +10°C° 0 mm 1 m/s 762 mmHg 82%
    23:00 +10°C° 0 mm 1 m/s 762 mmHg 84%

    21 Février, Jeudi

    Heure Température Précipitation Vent Pression Humidité
    00:00 +9°C° 0 mm 1 m/s 762 mmHg 85%
    01:00 +9°C° 0 mm 1 m/s 762 mmHg 86%
    02:00 +9°C° 0 mm 1 m/s 762 mmHg 88%
    03:00 +7°C° 0 mm 2 m/s 763 mmHg 89%
    04:00 +8°C° 0 mm 1 m/s 763 mmHg 90%
    05:00 +8°C° 0 mm 1 m/s 763 mmHg 91%
    06:00 +8°C° 0 mm 1 m/s 763 mmHg 92%
    07:00 +8°C° 0 mm 1 m/s 763 mmHg 89%
    08:00 +9°C° 0 mm 1 m/s 764 mmHg 86%
    09:00 +10°C° 0 mm 1 m/s 764 mmHg 83%
    10:00 +11°C° 0 mm 1 m/s 764 mmHg 76%
    11:00 +12°C° 0 mm 1 m/s 764 mmHg 69%
    12:00 +14°C° 0 mm 1 m/s 765 mmHg 62%
    13:00 +14°C° 0 mm 1 m/s 764 mmHg 57%
    14:00 +15°C° 0 mm 1 m/s 764 mmHg 53%
    15:00 +15°C° 0 mm 1 m/s 764 mmHg 48%
    16:00 +14°C° 0 mm 1 m/s 764 mmHg 52%
    17:00 +13°C° 0 mm 1 m/s 764 mmHg 56%
    18:00 +11°C° 0 mm 0 m/s 765 mmHg 60%
    19:00 +11°C° 0 mm 0 m/s 765 mmHg 62%
    20:00 +10°C° 0 mm 0 m/s 765 mmHg 64%
    21:00 +9°C° 0 mm 0 m/s 766 mmHg 66%
    22:00 +9°C° 0 mm 0 m/s 766 mmHg 67%
    23:00 +9°C° 0 mm 0 m/s 766 mmHg 69%

    22 Février, Vendredi

    Heure Température Précipitation Vent Pression Humidité
    00:00 +8°C° 0 mm 0 m/s 766 mmHg 70%
    01:00 +8°C° 0 mm 0 m/s 766 mmHg 72%
    02:00 +8°C° 0 mm 0 m/s 767 mmHg 74%
    03:00 +7°C° 0 mm 0 m/s 767 mmHg 75%
    04:00 +8°C° 0 mm 1 m/s 767 mmHg 76%
    05:00 +8°C° 0 mm 1 m/s 767 mmHg 78%
    06:00 +7°C° 0 mm 1 m/s 767 mmHg 79%
    07:00 +8°C° 0 mm 1 m/s 767 mmHg 76%
    08:00 +9°C° 0 mm 1 m/s 768 mmHg 73%
    09:00 +10°C° 0 mm 1 m/s 768 mmHg 71%
    10:00 +11°C° 0 mm 1 m/s 768 mmHg 66%
    11:00 +13°C° 0 mm 2 m/s 768 mmHg 61%
    12:00 +14°C° 0 mm 2 m/s 768 mmHg 56%
    13:00 +15°C° 0 mm 2 m/s 768 mmHg 55%
    14:00 +15°C° 0 mm 2 m/s 767 mmHg 55%
    15:00 +16°C° 0 mm 2 m/s 767 mmHg 54%
    16:00 +15°C° 0 mm 2 m/s 767 mmHg 60%
    17:00 +13°C° 0 mm 2 m/s 768 mmHg 66%
    18:00 +12°C° 0 mm 2 m/s 768 mmHg 71%
    19:00 +12°C° 0 mm 2 m/s 768 mmHg 75%
    20:00 +10°C° 0 mm 2 m/s 768 mmHg 78%
    21:00 +10°C° 0 mm 2 m/s 769 mmHg 81%
    22:00 +9°C° 0 mm 2 m/s 769 mmHg 83%
    23:00 +9°C° 0 mm 2 m/s 769 mmHg 85%
    Voir plus